FW8315 Weather Reports


Display with metric or nautical units.
time (UTC)temp
F
wind
direction
speed
MPH
gust
MPH
rain 1hr
in
rain 24hr
in
rain mn
in
humidity
%
barometer
mb
20260906060021 70 1 8.0 14.0 0.00 0.00 0.00 62 1018.2
20260906055022 69 3 6.0 15.0 0.00 0.00 0.00 63 1018.1
20260906054028 69 344 7.0 13.0 0.00 0.00 0.00 64 1018.0
20260906053032 68 5 6.0 14.0 0.00 0.00 0.00 65 1017.8
20260906052041 68 1 6.0 15.0 0.00 0.00 0.00 66 1017.8
20260906043028 65 359 4.0 9.0 0.00 0.00 0.00 75 1017.0
20260906042016 65 11 3.0 9.0 0.00 0.00 0.00 76 1017.0
20260906041021 65 3 4.0 8.0 0.00 0.00 0.00 76 1016.7
20260906040026 65 8 3.0 6.0 0.00 0.00 0.00 76 1016.5
20260906035032 65 16 3.0 6.0 0.00 0.00 0.00 76 1016.4
20260906034019 65 10 4.0 9.0 0.00 0.00 0.00 76 1016.5
20260906033024 64 19 4.0 8.0 0.00 0.00 0.00 76 1016.3
20260906032029 64 22 4.0 9.0 0.00 0.00 0.00 75 1016.2
20260906031017 64 32 3.0 7.0 0.00 0.00 0.00 75 1016.3
20260906030022 64 9 4.0 8.0 0.00 0.00 0.00 75 1016.0
20260906025027 64 15 4.0 8.0 0.00 0.00 0.00 75 1016.0
20260906024032 64 5 4.0 8.0 0.00 0.00 0.00 74 1015.7
20260906023019 64 16 3.0 7.0 0.00 0.00 0.00 74 1015.5
20260906022024 64 14 3.0 6.0 0.00 0.00 0.00 74 1015.5
20260906021050 64 1 4.0 8.0 0.00 0.00 0.00 74 1015.5
20260906012021 65 327 2.0 6.0 0.00 0.00 0.00 70 1015.0
20260906011026 65 306 3.0 8.0 0.00 0.00 0.00 71 1015.0
20260906010030 65 301 3.0 4.0 0.00 0.00 0.00 71 1014.9
20260906005018 65 288 1.0 2.0 0.00 0.00 0.00 71 1015.0
20260906004024 65 286 2.0 3.0 0.00 0.00 0.00 71 1015.1
20260906003028 65 289 3.0 8.0 0.00 0.00 0.00 70 1015.0
20260906002016 65 319 3.0 9.0 0.00 0.00 0.00 71 1015.0
20260906001021 65 213 0.0 0.0 0.00 0.00 0.00 70 1014.8
20260906000026 66 213 0.0 2.0 0.00 0.00 0.00 69 1014.7
20260905235031 66 213 1.0 3.0 0.00 0.00 0.00 69 1014.7
20260905234020 67 195 1.0 2.0 0.00 0.00 0.00 68 1014.7
20260905233024 67 206 1.0 3.0 0.00 0.00 0.00 68 1014.7
20260905232029 67 204 1.0 4.0 0.00 0.00 0.00 69 1014.8
20260905231017 67 200 1.0 3.0 0.00 0.00 0.00 70 1014.8
20260905230022 67 179 2.0 4.0 0.00 0.00 0.00 70 1014.9
20260905225032 67 192 1.0 3.0 0.00 0.00 0.00 70 1014.9
20260905224032 67 185 1.0 2.0 0.00 0.00 0.00 71 1014.9
20260905223020 67 194 2.0 4.0 0.00 0.00 0.00 70 1015.0
20260905222025 67 179 3.0 6.0 0.00 0.00 0.00 70 1015.0
20260905221030 67 176 2.0 4.0 0.00 0.00 0.00 71 1015.1
20260905220018 67 180 0.0 2.0 0.00 0.00 0.00 71 1015.1
20260905215023 67 171 2.0 3.0 0.00 0.00 0.00 71 1015.2
20260905214027 68 181 3.0 4.0 0.00 0.00 0.00 72 1015.2
20260905213016 68 174 3.0 6.0 0.00 0.00 0.00 70 1015.3
20260905212021 68 178 2.0 4.0 0.00 0.00 0.00 70 1015.3
20260905211025 68 176 1.0 3.0 0.00 0.00 0.00 70 1015.2
20260905210030 68 177 1.0 3.0 0.00 0.00 0.00 69 1015.3
20260905205031 68 164 1.0 2.0 0.00 0.00 0.00 68 1015.3
20260905204019 68 170 1.0 3.0 0.00 0.00 0.00 68 1015.2
20260905203044 68 161 2.0 4.0 0.00 0.00 0.00 69 1015.3
20260905194032 68 176 1.0 2.0 0.00 0.00 0.00 68 1015.5
20260905193020 68 172 1.0 2.0 0.00 0.00 0.00 67 1015.5
20260905192025 69 164 1.0 2.0 0.00 0.00 0.00 66 1015.5
20260905191030 69 161 1.0 3.0 0.00 0.00 0.00 66 1015.4
20260905190058 70 170 1.0 2.0 0.00 0.00 0.00 65 1015.3
20260905173029 75 159 4.0 9.0 0.00 0.00 0.00 59 1015.1
20260905172017 75 167 4.0 9.0 0.00 0.00 0.00 58 1015.1
20260905171022 75 164 4.0 8.0 0.00 0.00 0.00 58 1015.1
20260905170027 76 169 4.0 8.0 0.00 0.00 0.00 57 1014.9
20260905165032 77 167 4.0 8.0 0.00 0.00 0.00 56 1015.0
20260905164020 77 163 4.0 9.0 0.00 0.00 0.00 55 1015.0
20260905163025 78 164 5.0 13.0 0.00 0.00 0.00 54 1015.0
20260905162030 79 159 6.0 11.0 0.00 0.00 0.00 53 1014.9
20260905161018 79 174 5.0 10.0 0.00 0.00 0.00 53 1014.9
20260905160023 80 163 6.0 14.0 0.00 0.00 0.00 53 1014.6
20260905155028 81 186 7.0 15.0 0.00 0.00 0.00 53 1014.9
20260905154033 81 176 7.0 14.0 0.00 0.00 0.00 52 1014.8
20260905153021 82 156 6.0 14.0 0.00 0.00 0.00 51 1014.6
20260905152026 82 152 7.0 13.0 0.00 0.00 0.00 49 1014.7
20260905151031 83 152 8.0 14.0 0.00 0.00 0.00 48 1014.7
20260905142021 86 152 8.0 19.0 0.00 0.00 0.00 43 1014.8
20260905141026 86 145 11.0 19.0 0.00 0.00 0.00 42 1014.8
20260905140031 87 150 10.0 19.0 0.00 0.00 0.00 41 1014.8
20260905135019 88 151 8.0 15.0 0.00 0.00 0.00 39 1014.8
20260905134024 89 178 3.0 10.0 0.00 0.00 0.00 35 1014.9
20260905133029 89 237 4.0 13.0 0.00 0.00 0.00 33 1014.8
20260905132017 89 242 3.0 10.0 0.00 0.00 0.00 33 1014.9
20260905131022 89 219 3.0 8.0 0.00 0.00 0.00 34 1015.0
20260905130027 90 345 3.0 9.0 0.00 0.00 0.00 34 1015.1
20260905125032 89 231 4.0 10.0 0.00 0.00 0.00 34 1015.2
20260905124020 89 291 5.0 10.0 0.00 0.00 0.00 33 1015.3
20260905123025 88 261 3.0 7.0 0.00 0.00 0.00 36 1015.3
20260905122030 88 218 3.0 11.0 0.00 0.00 0.00 35 1015.6
20260905121018 88 196 3.0 9.0 0.00 0.00 0.00 35 1015.6
20260905120025 88 267 7.0 13.0 0.00 0.00 0.00 35 1015.8
20260905115028 88 229 4.0 9.0 0.00 0.00 0.00 35 1015.9
20260905114016 87 256 6.0 11.0 0.00 0.00 0.00 37 1016.0
20260905113021 87 327 2.0 4.0 0.00 0.00 0.00 35 1015.9
20260905112026 87 276 4.0 11.0 0.00 0.00 0.00 36 1016.2
20260905111031 87 296 4.0 9.0 0.00 0.00 0.00 35 1016.2
20260905102022 85 216 2.0 8.0 0.00 0.00 0.00 40 1016.6
20260905101027 85 239 3.0 7.0 0.00 0.00 0.00 40 1016.8
20260905100033 85 243 4.0 11.0 0.00 0.00 0.00 40 1016.8
20260905095019 84 94 2.0 4.0 0.00 0.00 0.00 41 1016.8
20260905094024 84 260 3.0 9.0 0.00 0.00 0.00 40 1017.0
20260905093029 84 204 2.0 10.0 0.00 0.00 0.00 40 1017.1
20260905092017 84 280 6.0 14.0 0.00 0.00 0.00 40 1017.1
20260905091023 83 247 1.0 8.0 0.00 0.00 0.00 41 1017.1
20260905090027 83 244 5.0 10.0 0.00 0.00 0.00 42 1017.2
20260905085032 83 242 6.0 14.0 0.00 0.00 0.00 43 1017.2
20260905084020 83 188 4.0 11.0 0.00 0.00 0.00 42 1017.3
20260905083025 83 231 3.0 13.0 0.00 0.00 0.00 43 1017.3
20260905082030 82 181 5.0 10.0 0.00 0.00 0.00 43 1017.2
20260905081018 82 254 4.0 9.0 0.00 0.00 0.00 44 1017.4
20260905080023 82 189 4.0 9.0 0.00 0.00 0.00 45 1017.3
20260905075028 82 181 5.0 11.0 0.00 0.00 0.00 47 1017.3
20260905074016 81 231 4.0 9.0 0.00 0.00 0.00 48 1017.4
20260905073021 81 236 4.0 8.0 0.00 0.00 0.00 48 1017.3
20260905072026 80 229 4.0 10.0 0.00 0.00 0.00 50 1017.4
20260905071031 80 248 4.0 9.0 0.00 0.00 0.00 51 1017.4
20260905070019 79 206 3.0 7.0 0.00 0.00 0.00 51 1017.4
20260905065024 79 222 3.0 8.0 0.00 0.00 0.00 53 1017.3
20260905064029 78 238 3.0 6.0 0.00 0.00 0.00 55 1017.3
20260905063017 77 214 3.0 7.0 0.00 0.00 0.00 56 1017.3
20260905062022 77 203 3.0 8.0 0.00 0.00 0.00 57 1017.3
20260905061027 76 210 3.0 7.0 0.00 0.00 0.00 59 1017.3